1506556800.9,5937,16.44,74716.3,-1.19,-32.39,-32.69,0,*64
1506556802.13,5938,16.44,74716.3,-1.19,-32.69,-32.91,0,*69
1506556803.39,5939,16.44,74718.8,-1.19,-32.57,-32.85,0,*60
1506556804.64,5940,16.5,74716.3,-1.21,-32.75,-33.09,0,*60
1506556805.89,5941,16.44,74716.0,-1.19,-32.69,-33.09,0,*67
1506556807.14,5942,16.44,74714.8,-1.19,-32.85,-33.37,0,*6B
1506556808.37,5943,16.44,74712.5,-1.19,-32.69,-33.03,0,*6F
1506556809.65,5944,16.44,74716.3,-1.19,-32.85,-33.27,0,*6C
1506556810.9,5945,16.5,74718.0,-1.19,-32.85,-33.21,0,*6B
1506556812.17,5946,16.44,74716.0,-1.19,-32.75,-33.09,0,*6D
1506556813.4,5947,16.5,74718.0,-1.21,-32.79,-33.15,0,*66
1506556814.64,5948,16.44,74716.0,-1.19,-32.85,-33.21,0,*66
1506556815.93,5949,16.44,74712.3,-1.19,-32.75,-33.27,0,*6E
1506556817.18,5950,16.44,74714.0,-1.19,-33.03,-33.43,0,*64
1506556818.43,5951,16.44,74714.8,-1.19,-33.21,-33.43,0,*65
1506556819.65,5952,16.5,74716.3,-1.19,-33.03,-33.37,0,*65
1506556820.88,5953,16.5,74718.3,-1.19,-33.03,-33.37,0,*64
1506556822.13,5954,16.5,74718.5,-1.21,-32.79,-33.27,0,*65
1506556823.39,5955,16.5,74718.3,-1.19,-32.75,-33.03,0,*65
1506556824.63,5956,16.44,74714.5,-1.21,-32.63,-32.97,0,*66
1506556825.86,5957,16.44,74716.8,-1.21,-32.75,-32.91,0,*66
1506556827.14,5958,16.44,74716.0,-1.19,-32.75,-33.27,0,*6E
1506556828.39,5959,16.44,74712.5,-1.17,-32.85,-33.27,0,*6E
1506556829.64,5960,16.44,74712.5,-1.19,-32.85,-33.21,0,*6C
1506556830.86,5961,16.44,74714.8,-1.19,-32.91,-33.37,0,*6F
1506556832.11,5962,16.44,74712.5,-1.19,-32.91,-33.27,0,*6D
1506556833.33,5963,16.44,74716.3,-1.19,-32.91,-33.37,0,*6D
1506556834.55,5964,16.5,74718.3,-1.19,-32.91,-33.37,0,*6A
1506556835.83,5965,16.44,74718.0,-1.19,-32.85,-33.27,0,*6F
1506556837.1,5966,16.5,74718.5,-1.19,-32.85,-33.09,0,*60
1506556838.35,5967,16.44,74716.0,-1.19,-32.75,-33.21,0,*64
1506556839.58,5968,16.5,74718.5,-1.19,-33.03,-33.37,0,*6C
1506556840.83,5969,16.44,74716.0,-1.21,-32.97,-33.43,0,*69
1506556842.05,5970,16.5,74718.0,-1.19,-33.03,-33.37,0,*65
1506556843.3,5971,16.5,74718.5,-1.19,-33.09,-33.37,0,*6E
1506556844.55,5972,16.44,74716.8,-1.19,-33.03,-33.49,0,*6E
1506556845.79,5973,16.44,74716.3,-1.21,-33.27,-33.49,0,*62
1506556847.05,5974,16.44,74716.5,-1.19,-33.03,-33.43,0,*62
1506556848.3,5975,16.5,74718.0,-1.21,-33.09,-33.43,0,*62
1506556849.52,5976,16.44,74716.5,-1.21,-32.91,-33.27,0,*63
1506556850.78,5977,16.44,74716.5,-1.19,-32.75,-32.91,0,*6F
1506556852.03,5978,16.44,74716.8,-1.21,-32.79,-33.27,0,*6B
1506556853.26,5979,16.5,74716.8,-1.19,-32.57,-32.91,0,*61
1506556854.51,5980,16.44,74714.5,-1.19,-32.57,-32.85,0,*62
1506556855.74,5981,16.44,74714.5,-1.19,-32.39,-32.69,0,*69
1506556856.96,5982,16.44,74718.5,-1.19,-32.51,-32.91,0,*63
1506556858.21,5983,16.44,74718.5,-1.19,-32.75,-33.21,0,*6E
1506556859.43,5984,16.5,74718.5,-1.19,-32.91,-33.21,0,*63
1506556860.65,5985,16.44,74718.8,-1.19,-32.91,-33.37,0,*65
1506556861.93,5986,16.5,74716.0,-1.19,-32.75,-33.09,0,*61
1506556863.2,5987,16.44,74716.3,-1.19,-32.75,-33.09,0,*60
1506556864.43,5988,16.44,74712.3,-1.19,-32.57,-32.91,0,*6F
1506556865.68,5989,16.5,74718.5,-1.19,-32.39,-32.75,0,*6C
1506556866.93,5990,16.44,74714.5,-1.19,-32.57,-32.75,0,*6C
1506556868.19,5991,16.5,74718.8,-1.19,-32.39,-32.75,0,*65
1506556869.44,5992,16.5,74718.3,-1.19,-32.57,-32.85,0,*61
1506556870.63,5993,16.5,74716.3,-1.17,-32.51,-32.57,0,*67
1506556871.88,5994,16.5,74716.8,-1.15,-32.29,-32.63,0,*6A
1506556873.14,5995,16.5,74714.3,-1.15,-32.45,-32.79,0,*6A
1506556874.36,5996,16.44,74714.3,-1.17,-32.39,-32.75,0,*6C
1506556875.59,5997,16.5,74716.8,-1.17,-32.57,-32.85,0,*6A
1506556876.82,5998,16.5,74718.3,-1.15,-32.51,-32.79,0,*62
1506556878.05,5999,16.44,74714.8,-1.15,-32.51,-32.79,0,*63
1506556879.31,6000,16.5,74718.8,-1.17,-32.85,-33.27,0,*68
1506556880.56,6001,16.44,74716.0,-1.15,-32.97,-33.31,0,*6F
1506556881.79,6002,16.5,74718.8,-1.15,-32.79,-33.15,0,*6A
1506556883.0,6003,16.44,74716.5,-1.15,-33.03,-33.37,0,*67
1506556884.23,6004,16.44,74716.3,-1.15,-33.15,-33.43,0,*64
1506556885.48,6005,16.44,74714.5,-1.17,-33.09,-33.43,0,*6A
1506556886.71,6006,16.44,74718.0,-1.17,-33.03,-33.43,0,*63
1506556887.94,6007,16.5,74718.0,-1.17,-33.21,-33.43,0,*62
1506556889.16,6008,16.44,74714.8,-1.17,-33.21,-33.49,0,*67
1506556890.37,6009,16.44,74718.3,-1.17,-33.37,-33.61,0,*6B
1506556891.6,6010,16.5,74716.3,-1.17,-33.43,-33.67,0,*66
1506556892.81,6011,16.5,74718.5,-1.17,-33.43,-33.83,0,*6D
1506556894.06,6012,16.44,74714.5,-1.19,-33.43,-33.67,0,*6A
1506556895.33,6013,16.44,74714.0,-1.19,-33.27,-33.61,0,*6F
1506556896.55,6014,16.5,74718.0,-1.21,-33.27,-33.55,0,*64
1506556897.77,6015,16.5,74716.3,-1.21,-33.27,-33.55,0,*65
1506556898.99,6016,16.44,74716.3,-1.21,-33.27,-33.55,0,*66
1506556900.24,6017,16.44,74712.5,-1.21,-32.97,-33.43,0,*6A
1506556901.46,6018,16.44,74716.3,-1.21,-32.79,-33.15,0,*66
1506556902.68,6019,16.44,74716.8,-1.19,-32.91,-33.37,0,*6A
1506556903.9,6020,16.5,74716.0,-1.21,-33.15,-33.49,0,*6F
1506556905.15,6021,16.44,74716.3,-1.21,-33.27,-33.49,0,*6F
1506556906.37,6022,16.5,74718.5,-1.21,-33.15,-33.49,0,*6D
1506556907.62,6023,16.44,74714.8,-1.21,-33.09,-33.43,0,*6B
1506556908.85,6024,16.44,74716.3,-1.21,-32.91,-33.27,0,*6E
1506556910.07,6025,16.5,74716.8,-1.21,-33.15,-33.49,0,*6A
1506556911.32,6026,16.44,74712.8,-1.21,-32.79,-33.31,0,*6D
1506556912.57,6027,16.44,74712.0,-1.21,-32.79,-33.31,0,*6C
1506556913.82,6028,16.5,74718.5,-1.19,-32.75,-33.21,0,*65
1506556915.07,6029,16.44,74714.0,-1.21,-32.75,-32.97,0,*63
1506556916.3,6030,16.44,74714.5,-1.19,-32.57,-32.91,0,*66
1506556917.55,6031,16.44,74714.0,-1.19,-32.39,-32.75,0,*65
1506556918.8,6032,16.44,74714.3,-1.19,-32.39,-32.75,0,*66
1506556920.03,6033,16.44,74712.8,-1.21,-32.57,-33.09,0,*6E
1506556921.27,6034,16.44,74712.8,-1.21,-32.63,-32.97,0,*68
1506556922.52,6035,16.44,74712.0,-1.19,-32.51,-32.75,0,*6F
1506556923.76,6036,16.44,74712.3,-1.19,-32.29,-32.57,0,*63
1506556925.01,6037,16.5,74714.8,-1.19,-32.39,-32.75,0,*63
1506556926.26,6038,16.44,74714.0,-1.19,-32.19,-32.57,0,*6E
1506556927.5,6039,16.44,74712.3,-1.19,-32.29,-32.69,0,*61
1506556928.69,6040,16.44,74712.0,-1.17,-32.35,-32.69,0,*6C
1506556929.91,6041,16.44,74710.0,-1.17,-32.29,-32.69,0,*60
1506556931.14,6042,16.44,74712.0,-1.17,-32.07,-32.35,0,*66
1506556932.39,6043,16.5,74716.3,-1.15,-31.95,-32.29,0,*60
1506556933.61,6044,16.44,74714.5,-1.17,-32.29,-32.69,0,*65
1506556934.84,6045,16.44,74710.8,-1.15,-32.13,-32.45,0,*61
1506556936.1,6046,16.5,74716.8,-1.15,-32.45,-32.79,0,*6E
1506556937.3,6047,16.44,74716.0,-1.15,-32.35,-32.69,0,*69
1506556938.53,6048,16.44,74712.3,-1.15,-32.35,-32.63,0,*6C
1506556939.75,6049,16.44,74712.3,-1.17,-32.51,-32.75,0,*6A
1506556940.96,6050,16.44,74714.8,-1.15,-32.35,-32.69,0,*6F
1506556942.19,6051,16.44,74716.0,-1.13,-32.35,-32.69,0,*68
1506556943.44,6052,16.44,74710.8,-1.11,-32.45,-32.75,0,*63
1506556944.72,6053,16.44,74714.5,-1.13,-32.45,-32.79,0,*6C
1506556946.0,6054,16.44,74714.0,-1.13,-32.45,-32.79,0,*6B
1506556947.23,6055,16.44,74710.5,-1.11,-32.23,-32.45,0,*67
1506556948.48,6056,16.44,74712.3,-1.13,-32.23,-32.63,0,*62
1506556949.67,6057,16.44,74714.8,-1.11,-32.23,-32.57,0,*66
1506556950.87,6058,16.44,74712.3,-1.07,-32.23,-32.57,0,*6E
1506556952.12,6059,16.44,74712.3,-1.11,-32.19,-32.45,0,*62
1506556953.35,6060,16.44,74714.8,-1.11,-32.23,-32.63,0,*65
1506556954.58,6061,16.44,74714.0,-1.11,-32.07,-32.39,0,*6D
1506556955.84,6062,16.5,74716.8,-1.07,-32.19,-32.45,0,*6D
1506556957.07,6063,16.44,74714.0,-1.07,-32.45,-32.91,0,*6C
1506556958.32,6064,16.44,74714.8,-1.07,-32.45,-32.79,0,*6D
1506556959.58,6065,16.44,74714.8,-1.07,-32.45,-32.75,0,*60
1506556960.84,6066,16.44,74712.8,-1.07,-32.63,-33.09,0,*6D
1506556962.07,6067,16.44,74712.5,-1.07,-32.75,-33.15,0,*66
1506556963.32,6068,16.44,74712.8,-1.07,-32.63,-32.97,0,*65
1506556964.58,6069,16.44,74714.8,-1.07,-32.63,-32.97,0,*64
1506556965.8,6070,16.44,74714.5,-1.05,-32.57,-33.03,0,*65
1506556967.07,6071,16.44,74716.8,-1.07,-32.79,-33.27,0,*6C
1506556968.33,6072,16.44,74712.5,-1.07,-32.75,-33.09,0,*6F
1506556969.59,6073,16.44,74716.0,-1.07,-32.75,-33.27,0,*62
1506556970.85,6074,16.44,74712.5,-1.07,-32.79,-33.27,0,*69
1506556972.06,6075,16.44,74714.0,-1.07,-32.57,-32.91,0,*68
1506556973.27,6076,16.44,74712.5,-1.07,-32.57,-32.91,0,*6B
1506556974.5,6077,16.44,74712.3,-1.07,-32.57,-32.97,0,*6C
1506556975.71,6078,16.44,74712.0,-1.07,-32.57,-32.91,0,*65
1506556976.94,6079,16.44,74712.5,-1.07,-32.63,-33.15,0,*6E
1506556978.16,6080,16.44,74714.8,-1.05,-32.57,-32.91,0,*60
1506556979.42,6081,16.44,74712.0,-1.07,-32.63,-33.09,0,*64
1506556980.67,6082,16.5,74714.3,-1.05,-32.51,-32.85,0,*61
1506556981.9,6083,16.44,74710.8,-1.05,-32.57,-33.03,0,*69
1506556983.13,6084,16.44,74710.5,-1.05,-32.35,-32.69,0,*67
1506556984.38,6085,16.44,74714.0,-1.07,-32.29,-32.75,0,*64
1506556985.63,6086,16.44,74712.8,-1.05,-32.35,-32.85,0,*67
1506556986.89,6087,16.44,74712.5,-1.05,-32.39,-32.75,0,*65
1506556988.12,6088,16.44,74714.0,-1.07,-32.23,-32.75,0,*63
1506556989.34,6089,16.5,74716.3,-1.05,-32.35,-32.69,0,*6A
1506556990.6,6090,16.44,74714.0,-1.05,-32.51,-32.75,0,*6D
1506556991.86,6091,16.44,74712.3,-1.05,-32.51,-32.85,0,*63
1506556993.11,6092,16.44,74712.0,-1.05,-32.51,-32.75,0,*6F
1506556994.37,6093,16.44,74714.8,-1.05,-32.75,-33.21,0,*68
1506556995.61,6094,16.44,74714.5,-1.05,-32.91,-33.31,0,*64
1506556996.84,6095,16.44,74712.5,-1.05,-32.57,-33.03,0,*6E
1506556998.07,6096,16.44,74714.5,-1.05,-32.69,-33.03,0,*60
1506556999.33,6097,16.44,74712.3,-1.05,-32.57,-33.09,0,*66
1506557000.56,6098,16.44,74710.8,-1.05,-32.69,-32.91,0,*64
1506557001.79,6099,16.44,74712.0,-1.05,-32.51,-32.91,0,*6E
1506557003.04,6100,16.44,74714.5,-1.05,-32.39,-32.85,0,*64
1506557004.26,6101,16.44,74714.3,-1.05,-32.39,-32.57,0,*6A
1506557005.5,6102,16.44,74714.5,-1.03,-32.51,-32.75,0,*61
1506557006.7,6103,16.44,74712.0,-1.03,-32.57,-33.03,0,*66
1506557007.96,6104,16.44,74714.0,-1.03,-32.75,-33.09,0,*6B
1506557009.18,6105,16.44,74712.8,-1.03,-32.85,-33.21,0,*6F
1506557010.39,6106,16.5,74716.0,-1.03,-32.69,-33.03,0,*6E
1506557011.6,6107,16.44,74712.3,-1.03,-32.51,-32.91,0,*6E
1506557012.8,6108,16.44,74714.3,-1.03,-32.51,-33.03,0,*6B
1506557014.03,6109,16.5,74716.5,-1.03,-32.85,-33.21,0,*63
1506557015.26,6110,16.44,74716.0,-1.03,-32.91,-33.27,0,*68
1506557016.51,6111,16.44,74712.8,-1.05,-32.91,-33.31,0,*68
1506557017.76,6112,16.44,74716.3,-1.05,-32.91,-33.27,0,*6C
1506557019.02,6113,16.44,74712.8,-1.03,-32.75,-33.27,0,*61
1506557020.26,6114,16.44,74714.8,-1.05,-32.91,-33.31,0,*6D
1506557021.46,6115,16.44,74712.8,-1.07,-33.15,-33.55,0,*61
1506557022.75,6116,16.44,74712.0,-1.05,-32.75,-33.27,0,*62
1506557024.0,6117,16.44,74714.5,-1.05,-32.75,-33.21,0,*65
1506557025.29,6118,16.44,74714.5,-1.05,-32.75,-33.43,0,*6E
1506557026.54,6119,16.44,74718.3,-1.07,-33.09,-33.49,0,*6D
1506557027.77,6120,16.44,74714.0,-1.07,-33.21,-33.61,0,*67
1506557028.99,6121,16.44,74712.3,-1.07,-33.15,-33.73,0,*62
1506557030.2,6122,16.44,74714.0,-1.07,-33.15,-33.37,0,*61
1506557031.43,6123,16.44,74714.0,-1.07,-32.91,-33.31,0,*6B
1506557032.68,6124,16.5,74718.3,-1.05,-32.75,-33.21,0,*65
1506557033.93,6125,16.44,74714.8,-1.05,-32.91,-33.27,0,*68
1506557035.16,6126,16.44,74714.3,-1.07,-33.15,-33.49,0,*6C
1506557036.41,6127,16.44,74712.3,-1.07,-33.09,-33.49,0,*60
1506557037.64,6128,16.44,74712.5,-1.07,-33.15,-33.49,0,*62
1506557038.87,6129,16.44,74714.0,-1.07,-32.91,-33.31,0,*61
1506557040.1,6130,16.44,74710.8,-1.11,-32.91,-33.27,0,*69
1506557041.3,6131,16.44,74712.0,-1.11,-32.91,-33.37,0,*69
1506557042.5,6132,16.5,74712.8,-1.11,-33.15,-33.55,0,*63
1506557043.75,6133,16.44,74710.8,-1.11,-32.97,-33.31,0,*6B
1506557044.98,6134,16.44,74712.0,-1.11,-33.09,-33.37,0,*6C
1506557046.21,6135,16.44,74710.5,-1.11,-32.97,-33.37,0,*6B
1506557047.44,6136,16.44,74710.5,-1.13,-32.69,-33.21,0,*6C
1506557048.69,6137,16.44,74712.8,-1.11,-32.45,-32.97,0,*6D
1506557049.94,6138,16.44,74712.8,-1.11,-32.63,-33.09,0,*60
1506557051.17,6139,16.44,74714.0,-1.11,-32.63,-33.15,0,*6C
1506557052.37,6140,16.44,74712.8,-1.11,-32.57,-32.91,0,*68
1506557053.58,6141,16.44,74712.0,-1.07,-32.57,-32.91,0,*6E
1506557054.84,6142,16.44,74712.0,-1.11,-32.63,-33.09,0,*6D
1506557056.09,6143,16.44,74712.3,-1.11,-32.45,-32.75,0,*62
1506557057.32,6144,16.44,74714.5,-1.07,-32.57,-32.97,0,*6D
1506557058.57,6145,16.44,74708.0,-1.05,-32.35,-32.75,0,*66
1506557059.82,6146,16.44,74712.0,-1.05,-32.35,-32.85,0,*6A
1506557061.05,6147,16.44,74714.3,-1.05,-32.23,-32.69,0,*6E
1506557062.3,6148,16.44,74714.3,-1.07,-32.29,-32.75,0,*64
1506557063.56,6149,16.44,74710.8,-1.07,-32.45,-32.79,0,*63
1506557064.81,6150,16.44,74712.8,-1.05,-32.51,-32.85,0,*6F
1506557066.07,6151,16.5,74716.3,-1.07,-32.63,-33.09,0,*68
1506557067.32,6152,16.44,74712.3,-1.05,-32.39,-32.85,0,*63
1506557068.54,6153,16.44,74712.0,-1.07,-32.69,-33.21,0,*6A
1506557069.79,6154,16.44,74712.0,-1.05,-32.91,-33.27,0,*6E
1506557071.05,6155,16.44,74712.3,-1.07,-32.79,-33.27,0,*6B
1506557072.3,6156,16.44,74712.3,-1.05,-32.57,-33.09,0,*6A
1506557073.56,6157,16.44,74708.3,-1.05,-32.57,-33.09,0,*6B
1506557074.81,6158,16.44,74714.8,-1.05,-32.91,-33.27,0,*62
1506557076.09,6159,16.44,74710.3,-1.05,-32.75,-33.09,0,*65
1506557077.35,6160,16.44,74712.0,-1.07,-32.79,-33.27,0,*6D
1506557078.61,6161,16.5,74714.5,-1.07,-32.79,-33.27,0,*6C
1506557079.87,6162,16.44,74712.3,-1.07,-32.79,-33.31,0,*68
1506557081.1,6163,16.44,74712.3,-1.07,-32.57,-33.09,0,*6E
1506557082.37,6164,16.44,74714.8,-1.07,-32.75,-33.27,0,*65
1506557083.6,6165,16.44,74714.0,-1.05,-32.69,-33.21,0,*6D
1506557084.86,6166,16.44,74712.8,-1.07,-32.79,-33.31,0,*6C
1506557086.12,6167,16.44,74712.8,-1.07,-32.63,-33.27,0,*61
1506557087.35,6168,16.44,74712.3,-1.07,-32.97,-33.37,0,*64
1506557088.58,6169,16.5,74714.3,-1.07,-33.09,-33.37,0,*63
1506557089.84,6170,16.44,74710.0,-1.07,-33.09,-33.31,0,*6D
1506557091.11,6171,16.5,74714.0,-1.07,-32.75,-33.27,0,*61
1506557092.33,6172,16.44,74712.0,-1.05,-32.57,-33.03,0,*66
1506557093.59,6173,16.44,74712.3,-1.05,-32.57,-33.09,0,*6D
1506557094.81,6174,16.44,74708.3,-1.07,-32.57,-32.97,0,*6E
1506557096.07,6175,16.44,74708.5,-1.05,-32.51,-33.09,0,*6D
1506557097.35,6176,16.44,74712.3,-1.05,-32.19,-32.75,0,*68
1506557098.58,6177,16.44,74710.5,-1.07,-32.39,-32.79,0,*65
1506557099.81,6178,16.44,74710.8,-1.05,-32.23,-32.69,0,*62
1506557101.04,6179,16.44,74708.5,-1.07,-32.39,-32.63,0,*60
1506557102.26,6180,16.44,74712.0,-1.07,-32.23,-32.63,0,*6D
1506557103.52,6181,16.44,74710.5,-1.05,-32.19,-32.69,0,*6D
1506557104.75,6182,16.44,74712.3,-1.05,-32.39,-32.91,0,*6B
1506557105.98,6183,16.44,74710.5,-1.05,-32.23,-32.51,0,*6D
1506557107.23,6184,16.44,74710.3,-1.05,-32.19,-32.51,0,*63
1506557108.49,6185,16.44,74712.0,-1.05,-32.19,-32.39,0,*6C
1506557109.73,6186,16.5,74714.8,-1.05,-32.19,-32.57,0,*67
1506557110.93,6187,16.44,74712.0,-1.03,-32.13,-32.57,0,*6A
1506557112.2,6188,16.44,74710.3,-1.01,-32.29,-32.63,0,*69
1506557113.43,6189,16.44,74710.5,-1.03,-32.35,-32.75,0,*60
1506557114.64,6190,16.44,74712.0,-1.03,-32.39,-32.69,0,*69
1506557115.87,6191,16.44,74710.3,-1.03,-32.51,-32.85,0,*64
1506557117.15,6192,16.44,74708.3,-1.01,-32.19,-32.63,0,*61
1506557118.4,6193,16.5,74714.5,-1.01,-32.29,-32.69,0,*69
1506557119.65,6194,16.44,74712.3,-1.01,-32.13,-32.45,0,*69
1506557120.86,6195,16.44,74714.0,-1.03,-32.39,-32.91,0,*6B
1506557122.08,6196,16.44,74710.5,-1.01,-32.51,-33.03,0,*6E
1506557123.31,6197,16.44,74712.0,-1.01,-32.51,-33.15,0,*68
1506557124.54,6198,16.44,74710.8,-1.01,-32.51,-33.15,0,*67
1506557125.77,6199,16.44,74714.3,-1.01,-32.69,-33.21,0,*6A
1506557127.0,6200,16.44,74712.0,-1.03,-32.39,-32.85,0,*61
1506557128.21,6201,16.44,74708.5,-1.03,-32.51,-32.91,0,*6B
1506557129.46,6202,16.44,74708.0,-1.01,-32.29,-32.69,0,*62
1506557130.69,6203,16.44,74710.3,-1.01,-32.35,-32.69,0,*6E
1506557131.94,6204,16.44,74712.5,-1.01,-32.45,-32.69,0,*6E
1506557133.15,6205,16.44,74712.0,-1.03,-32.51,-32.91,0,*6F
1506557134.36,6206,16.44,74714.5,-0.99,-32.35,-32.63,0,*51
1506557135.59,6207,16.44,74712.3,-1.03,-32.35,-32.75,0,*65
1506557136.87,6208,16.44,74710.5,-1.01,-32.19,-32.63,0,*61
1506557138.11,6209,16.44,74712.5,-0.99,-32.45,-32.79,0,*52
1506557139.36,6210,16.44,74712.8,-0.99,-32.19,-32.63,0,*58
1506557140.57,6211,16.44,74710.8,-0.97,-32.23,-32.57,0,*59
1506557141.82,6212,16.44,74710.5,-0.97,-32.07,-32.69,0,*51
1506557143.07,6213,16.44,74712.8,-0.97,-32.13,-32.63,0,*5F
1506557144.32,6214,16.44,74712.5,-0.97,-32.39,-32.75,0,*57
1506557145.54,6215,16.44,74712.0,-0.99,-32.35,-32.79,0,*58
1506557146.76,6216,16.44,74708.8,-0.99,-32.29,-32.69,0,*57
1506557148.02,6217,16.44,74710.0,-0.97,-32.29,-32.63,0,*52
1506557149.29,6218,16.44,74714.5,-0.97,-32.29,-32.75,0,*5A
1506557150.49,6219,16.44,74712.0,-0.95,-32.23,-32.69,0,*5E
1506557151.75,6220,16.44,74714.5,-0.97,-32.29,-32.63,0,*56
1506557153.0,6221,16.44,74710.5,-0.97,-32.07,-32.57,0,*5C
1506557154.25,6222,16.44,74712.0,-0.97,-32.39,-32.75,0,*52
1506557155.5,6223,16.44,74708.8,-0.97,-32.23,-32.75,0,*58
1506557156.77,6224,16.44,74708.5,-0.97,-32.29,-32.75,0,*55
1506557157.98,6225,16.5,74714.5,-0.95,-32.19,-32.57,0,*55
1506557159.17,6226,16.44,74708.3,-0.95,-32.23,-32.57,0,*5F
1506557160.37,6227,16.44,74708.3,-0.95,-32.23,-32.69,0,*53
1506557161.6,6228,16.44,74710.5,-0.95,-32.07,-32.51,0,*51
1506557162.82,6229,16.44,74710.8,-0.93,-32.23,-32.69,0,*5B
1506557164.01,6230,16.44,74708.8,-0.95,-32.23,-32.57,0,*58
1506557165.2,6231,16.44,74712.8,-0.95,-32.23,-32.69,0,*54
1506557166.45,6232,16.44,74708.3,-0.93,-32.19,-32.69,0,*58
1506557167.68,6233,16.44,74708.3,-0.95,-32.19,-32.51,0,*54
1506557168.93,6234,16.44,74708.3,-0.93,-32.07,-32.39,0,*54
1506557170.16,6235,16.44,74710.8,-0.95,-32.07,-32.51,0,*5D
1506557171.4,6236,16.44,74714.5,-0.93,-32.19,-32.57,0,*51
1506557172.64,6237,16.44,74710.8,-0.93,-32.19,-32.57,0,*50
1506557173.86,6238,16.44,74712.3,-0.93,-32.23,-32.69,0,*5B
1506557175.11,6239,16.44,74710.3,-0.93,-32.19,-32.69,0,*53
1506557176.33,6240,16.44,74710.5,-0.93,-32.35,-32.69,0,*53
1506557177.53,6241,16.44,74710.0,-0.95,-32.39,-32.91,0,*5F
1506557178.75,6242,16.44,74708.3,-0.93,-32.23,-32.69,0,*56
1506557179.99,6243,16.44,74714.0,-0.93,-32.23,-32.85,0,*55
1506557181.21,6244,16.44,74712.8,-0.93,-32.35,-32.91,0,*50
1506557182.45,6245,16.44,74712.8,-0.93,-32.35,-32.75,0,*5B
1506557183.69,6246,16.44,74712.8,-0.93,-32.35,-32.85,0,*57
1506557184.92,6247,16.44,74712.8,-0.93,-32.39,-32.91,0,*5F
1506557186.14,6248,16.44,74712.5,-0.95,-32.35,-32.75,0,*50
1506557187.36,6249,16.44,74712.8,-0.93,-32.39,-33.03,0,*5B
1506557188.6,6250,16.44,74714.3,-0.93,-32.39,-32.85,0,*5C
1506557189.85,6251,16.44,74710.3,-0.91,-32.29,-32.79,0,*5D
1506557191.07,6252,16.44,74710.0,-0.91,-32.29,-32.69,0,*5F
1506557192.29,6253,16.44,74712.8,-0.91,-32.35,-32.79,0,*52
1506557193.53,6254,16.44,74712.3,-0.91,-32.45,-32.85,0,*51
1506557194.75,6255,16.44,74710.5,-0.91,-32.35,-32.85,0,*57
1506557196.0,6256,16.44,74710.8,-0.91,-32.63,-32.97,0,*54
1506557197.24,6257,16.44,74712.5,-0.93,-32.35,-32.85,0,*57
1506557198.45,6258,16.44,74712.8,-0.91,-32.35,-32.85,0,*5A
1506557199.67,6259,16.44,74712.3,-0.91,-32.29,-32.69,0,*54
1506557200.92,6260,16.44,74712.8,-0.93,-32.35,-32.75,0,*5C
1506557202.16,6261,16.44,74710.3,-0.93,-32.35,-32.85,0,*52
1506557203.39,6262,16.44,74708.3,-0.91,-32.19,-32.69,0,*5F
1506557204.61,6263,16.44,74708.8,-0.91,-32.19,-32.51,0,*55
1506557205.81,6264,16.44,74708.0,-0.91,-32.01,-32.35,0,*59
1506557207.01,6265,16.44,74714.0,-0.91,-32.13,-32.51,0,*59
1506557208.21,6266,16.44,74708.3,-0.91,-32.13,-32.35,0,*58
1506557209.43,6267,16.44,74708.5,-0.89,-32.01,-32.35,0,*53
1506557210.63,6268,16.44,74712.5,-0.91,-32.01,-32.35,0,*55
1506557211.87,6269,16.44,74710.5,-0.89,-32.13,-32.45,0,*59
1506557213.11,6270,16.44,74710.3,-0.89,-32.13,-32.63,0,*55
1506557214.36,6271,16.44,74708.0,-0.89,-32.19,-32.51,0,*5F
1506557215.63,6272,16.44,74710.8,-0.89,-31.95,-32.45,0,*5E
1506557216.9,6273,16.44,74708.0,-0.85,-31.95,-32.45,0,*53
1506557218.15,6274,16.44,74708.5,-0.85,-31.95,-32.39,0,*5F
1506557219.41,6275,16.44,74712.0,-0.83,-32.19,-32.51,0,*51
1506557220.62,6276,16.44,74710.0,-0.85,-32.13,-32.57,0,*58
1506557221.88,6277,16.44,74712.8,-0.85,-32.07,-32.45,0,*5F
1506557223.1,6278,16.44,74710.0,-0.85,-32.13,-32.57,0,*56
1506557224.33,6279,16.44,74714.3,-0.85,-32.07,-32.57,0,*52
1506557225.6,6280,16.44,74714.3,-0.85,-32.07,-32.45,0,*57
1506557226.86,6281,16.44,74712.3,-0.83,-32.23,-32.85,0,*5A
1506557228.12,6282,16.44,74708.5,-0.85,-32.45,-32.97,0,*5C
1506557229.36,6283,16.44,74710.8,-0.85,-32.39,-32.79,0,*56
1506557230.62,6284,16.44,74714.3,-0.85,-32.29,-32.63,0,*5B
1506557231.89,6285,16.44,74710.8,-0.85,-32.29,-32.75,0,*5D
1506557233.14,6286,16.44,74710.3,-0.83,-32.23,-32.85,0,*5D
1506557234.4,6287,16.44,74710.0,-0.85,-32.29,-32.63,0,*58
1506557235.61,6288,16.44,74710.0,-0.85,-32.23,-32.51,0,*5C
1506557236.86,6289,16.44,74708.5,-0.83,-32.19,-32.57,0,*54
1506557238.11,6290,16.44,74710.5,-0.83,-32.39,-32.85,0,*51
1506557239.36,6291,16.44,74710.5,-0.83,-32.19,-32.57,0,*5D
1506557240.61,6292,16.44,74708.8,-0.83,-32.07,-32.57,0,*51
1506557241.83,6293,16.44,74708.8,-0.83,-32.23,-32.69,0,*5B
1506557243.08,6294,16.44,74710.0,-0.83,-32.35,-32.85,0,*59
1506557244.32,6295,16.44,74708.3,-0.83,-32.35,-32.85,0,*58
1506557245.59,6296,16.44,74710.3,-0.85,-32.29,-32.75,0,*5F
1506557246.82,6297,16.44,74710.0,-0.83,-32.23,-32.69,0,*5F
1506557248.07,6298,16.44,74710.8,-0.83,-32.23,-32.85,0,*52
1506557249.28,6299,16.44,74708.3,-0.83,-32.23,-32.57,0,*5C
1506557250.53,6300,16.44,74712.0,-0.83,-32.35,-32.85,0,*55
1506557251.75,6301,16.44,74712.3,-0.85,-32.57,-32.91,0,*53
1506557253.01,6302,16.44,74710.5,-0.85,-32.63,-32.97,0,*51
1506557254.23,6303,16.44,74712.3,-0.83,-32.23,-32.57,0,*5E
1506557255.47,6304,16.44,74710.5,-0.85,-32.45,-32.91,0,*55
1506557256.72,6305,16.44,74706.5,-0.83,-32.23,-32.75,0,*58
1506557257.97,6306,16.44,74708.3,-0.83,-32.35,-32.75,0,*5C
1506557259.22,6307,16.44,74710.5,-0.83,-32.19,-32.69,0,*5E
1506557260.45,6308,16.44,74708.5,-0.81,-32.57,-32.97,0,*58
1506557261.7,6309,16.44,74708.5,-0.83,-32.75,-33.15,0,*50
1506557262.92,6310,16.44,74710.5,-0.81,-32.69,-32.97,0,*5C
1506557264.18,6311,16.44,74708.0,-0.83,-32.51,-32.85,0,*57
1506557265.42,6312,16.44,74710.3,-0.85,-32.45,-32.91,0,*52
1506557266.67,6313,16.44,74710.3,-0.85,-32.29,-32.97,0,*5F
1506557267.93,6314,16.44,74708.5,-0.83,-32.39,-32.85,0,*5C
1506557269.15,6315,16.44,74712.5,-0.83,-32.35,-32.91,0,*54
1506557270.4,6316,16.44,74708.3,-0.83,-32.35,-32.85,0,*52
1506557271.67,6317,16.44,74708.8,-0.85,-32.75,-33.09,0,*54
1506557272.88,6318,16.44,74710.0,-0.85,-32.57,-33.03,0,*51
1506557274.11,6319,16.44,74712.8,-0.83,-32.39,-32.91,0,*54
1506557275.34,6320,16.44,74708.5,-0.83,-32.57,-32.91,0,*56
1506557276.58,6321,16.44,74710.0,-0.83,-32.51,-32.97,0,*57
1506557277.84,6322,16.44,74708.5,-0.83,-32.75,-33.15,0,*59
1506557279.08,6323,16.44,74710.8,-0.83,-32.57,-32.97,0,*53
1506557280.35,6324,16.44,74708.8,-0.85,-32.63,-32.97,0,*55
1506557281.6,6325,16.44,74708.5,-0.83,-32.69,-32.97,0,*58
1506557282.85,6326,16.44,74712.5,-0.83,-32.51,-32.97,0,*50
1506557284.12,6327,16.44,74708.5,-0.85,-32.79,-33.31,0,*50
1506557285.36,6328,16.44,74708.0,-0.85,-32.79,-33.21,0,*5E
1506557286.62,6329,16.44,74710.5,-0.85,-32.45,-32.97,0,*5C
1506557287.86,6330,16.44,74708.0,-0.85,-32.57,-32.97,0,*57
1506557289.1,6331,16.44,74712.0,-0.85,-32.91,-33.31,0,*51
1506557290.37,6332,16.44,74710.0,-0.83,-32.97,-33.31,0,*52
1506557291.62,6333,16.44,74710.8,-0.85,-32.79,-33.21,0,*54
1506557292.86,6334,16.44,74708.8,-0.85,-32.63,-33.15,0,*5F
1506557294.1,6335,16.44,74712.3,-0.85,-32.79,-33.15,0,*55
1506557295.34,6336,16.44,74712.5,-0.85,-32.75,-33.15,0,*5A
1506557296.61,6337,16.44,74710.5,-0.89,-32.85,-33.09,0,*55
1506557297.88,6338,16.44,74708.8,-0.85,-32.79,-33.31,0,*5E
1506557299.15,6339,16.44,74710.5,-0.85,-32.97,-33.31,0,*5F
1506557300.39,6340,16.44,74712.0,-0.89,-32.63,-33.03,0,*57
1506557301.64,6341,16.44,74710.5,-0.89,-32.69,-33.09,0,*56
1506557302.86,6342,16.44,74710.8,-0.89,-32.69,-33.03,0,*5F
1506557304.1,6343,16.44,74712.3,-0.89,-32.51,-32.97,0,*59
1506557305.32,6344,16.44,74708.3,-0.91,-32.51,-32.85,0,*54